Location: Eurasberg
(48.3353°N, 11.0839°E)
Time: 15:35:12
(UTC+00:00)

Nadezhda 3 Rocket - Visible Passes

Search period start: 19 April 2026 00:00
Search period end: 29 April 2026 00:00
Orbit: 955 x 999 km, 82.9° (Epoch: 19 April)

Date Brightness Start Highest point End Pass type
(mag) Time Alt. Az. Time Alt. Az. Time Alt. Az.
19 Apr 6.7 19:55:45 10° NW 19:59:13 16° WNW 20:02:42 10° WSW visible
21 Apr 6.0 19:00:40 10° NNW 19:05:57 31° W 19:11:13 10° SW visible
22 Apr 6.6 19:27:22 10° NW 19:31:18 18° W 19:35:14 10° WSW visible
25 Apr 6.6 18:59:02 10° NW 19:03:22 20° W 19:07:42 10° SW visible
26 Apr 7.2 19:26:52 10° WNW 19:28:35 11° WNW 19:30:18 10° W visible
